TimeCST,TemperatureF,Dew PointF,Humidity,Sea Level PressureIn,VisibilityMPH,Wind Direction,Wind SpeedMPH,Gust SpeedMPH,PrecipitationIn,Events,Conditions,WindDirDegrees,DateUTC
12:53 AM,36.0,21.9,57,30.28,10.0,Calm,Calm,-,N/A,,Scattered Clouds,0,2013-01-17 06:53:00
1:53 AM,30.0,23.0,75,30.30,10.0,Calm,Calm,-,N/A,,Clear,0,2013-01-17 07:53:00
2:53 AM,37.9,21.9,53,30.30,10.0,WNW,5.8,-,N/A,,Clear,290,2013-01-17 08:53:00
3:53 AM,35.1,23.0,61,30.31,10.0,Calm,Calm,-,N/A,,Clear,0,2013-01-17 09:53:00
4:53 AM,35.1,25.0,67,30.33,10.0,Calm,Calm,-,N/A,,Clear,0,2013-01-17 10:53:00
6:53 AM,35.1,28.0,76,30.37,10.0,Calm,Calm,-,N/A,,Clear,0,2013-01-17 12:53:00
7:53 AM,35.1,28.0,76,30.40,10.0,SW,3.5,-,N/A,,Clear,220,2013-01-17 13:53:00
8:53 AM,41.0,30.9,67,30.43,10.0,Calm,Calm,-,N/A,,Clear,0,2013-01-17 14:53:00
9:53 AM,46.9,30.9,54,30.47,10.0,North,11.5,-,N/A,,Clear,350,2013-01-17 15:53:00
10:53 AM,50.0,32.0,50,30.48,10.0,North,10.4,-,N/A,,Clear,350,2013-01-17 16:53:00
11:53 AM,54.0,32.0,43,30.46,10.0,NNE,8.1,18.4,N/A,,Clear,20,2013-01-17 17:53:00
12:53 PM,57.0,32.0,39,30.44,10.0,NNE,8.1,-,N/A,,Clear,20,2013-01-17 18:53:00
1:53 PM,57.9,30.9,36,30.44,10.0,North,9.2,-,N/A,,Clear,10,2013-01-17 19:53:00
2:53 PM,60.1,30.9,33,30.42,10.0,North,13.8,-,N/A,,Clear,350,2013-01-17 20:53:00
3:53 PM,59.0,28.9,32,30.43,10.0,NNW,11.5,-,N/A,,Clear,340,2013-01-17 21:53:00
4:53 PM,57.9,28.0,32,30.44,10.0,North,10.4,-,N/A,,Clear,10,2013-01-17 22:53:00
5:53 PM,53.1,28.9,40,30.46,10.0,North,5.8,-,N/A,,Clear,10,2013-01-17 23:53:00
6:53 PM,43.0,30.0,60,30.48,10.0,Calm,Calm,-,N/A,,Clear,0,2013-01-18 00:53:00
7:53 PM,39.0,30.0,70,30.50,10.0,Calm,Calm,-,N/A,,Clear,0,2013-01-18 01:53:00
8:53 PM,32.0,28.0,85,30.51,10.0,Calm,Calm,-,N/A,,Clear,0,2013-01-18 02:53:00
9:53 PM,36.0,28.9,76,30.51,10.0,Calm,Calm,-,N/A,,Clear,0,2013-01-18 03:53:00
10:53 PM,30.9,28.0,89,30.52,10.0,Calm,Calm,-,N/A,,Clear,0,2013-01-18 04:53:00
11:53 PM,30.0,27.0,88,30.52,10.0,Calm,Calm,-,N/A,,Clear,0,2013-01-18 05:53:00